DW5499 Weather Reports


Display with metric or nautical units.
time (UTC)temp
F
wind
direction
speed
MPH
gust
MPH
rain 1hr
in
rain 24hr
in
rain mn
in
humidity
%
barometer
mb
20260901023053 89 137 1.0 2.0 0.00 0.00 0.00 60 1012.2
20260901021537 89 128 0.0 3.0 0.00 0.00 0.00 58 1012.1
20260901020041 89 114 0.0 2.0 0.00 0.00 0.00 56 1011.9
20260901014549 91 122 0.0 2.0 0.00 0.00 0.00 56 1011.9
20260901013036 92 201 2.0 4.0 0.00 0.00 0.00 53 1011.7
20260901011535 92 190 2.0 4.0 0.00 0.00 0.00 51 1011.5
20260901010035 94 214 1.0 4.0 0.00 0.00 0.00 49 1011.5
20260901004536 95 203 3.0 5.0 0.00 0.00 0.00 46 1011.4
20260901003033 97 177 3.0 7.0 0.00 0.00 0.00 44 1011.4
20260901001532 98 178 3.0 9.0 0.00 0.00 0.00 43 1011.4
20260901000033 99 160 4.0 6.0 0.00 0.00 0.00 42 1011.4
20260831234533 99 173 4.0 8.0 0.00 0.00 0.00 41 1011.4
20260831233032 99 193 4.0 5.0 0.00 0.00 0.00 40 1011.3
20260831231531 100 181 3.0 6.0 0.00 0.00 0.00 39 1011.3
20260831230032 100 162 2.0 5.0 0.00 0.00 0.00 40 1011.3
20260831224530 99 261 3.0 6.0 0.00 0.00 0.00 41 1011.3
20260831223030 100 238 5.0 7.0 0.00 0.00 0.00 41 1011.3
20260831221529 100 218 2.0 9.0 0.00 0.00 0.00 40 1011.4
20260831220028 100 168 1.0 6.0 0.00 0.00 0.00 40 1011.4
20260831214527 99 231 5.0 10.0 0.00 0.00 0.00 40 1011.5
20260831213027 100 263 6.0 10.0 0.00 0.00 0.00 39 1011.5
20260831211524 99 245 5.0 8.0 0.00 0.00 0.00 42 1011.6
20260831210024 98 247 3.0 9.0 0.00 0.00 0.00 43 1011.8
20260831204521 98 210 5.0 11.0 0.00 0.00 0.00 42 1011.9
20260831203019 98 237 6.0 11.0 0.00 0.00 0.00 42 1012.0
20260831201519 98 235 4.0 13.0 0.00 0.00 0.00 42 1012.2
20260831200035 97 208 5.0 15.0 0.00 0.00 0.00 42 1012.2
20260831194517 97 208 6.0 13.0 0.00 0.00 0.00 43 1012.2
20260831193026 97 211 2.0 13.0 0.00 0.00 0.00 43 1012.2
20260831191515 97 185 5.0 17.0 0.00 0.00 0.00 43 1012.2
20260831190014 96 200 5.0 12.0 0.00 0.00 0.00 44 1012.3
20260831184512 95 222 10.0 17.0 0.00 0.00 0.00 45 1012.3
20260831183011 95 160 6.0 12.0 0.00 0.00 0.00 46 1012.3
20260831181509 94 229 8.0 13.0 0.00 0.00 0.00 48 1012.6
20260831180016 94 193 5.0 11.0 0.00 0.00 0.00 47 1012.7
20260831174519 93 230 7.0 13.0 0.00 0.00 0.00 47 1012.8
20260831173004 93 197 3.0 14.0 0.00 0.00 0.00 49 1012.8
20260831171504 91 222 4.0 13.0 0.00 0.00 0.00 50 1012.8
20260831170001 90 218 5.0 15.0 0.00 0.00 0.00 52 1012.9
20260831164622 90 236 6.0 12.0 0.00 0.00 0.00 52 1012.9
20260831163059 90 155 6.0 11.0 0.00 0.00 0.00 52 1013.0
20260831161557 88 164 5.0 14.0 0.00 0.00 0.00 54 1013.1
20260831160055 87 220 4.0 14.0 0.00 0.00 0.00 56 1013.0
20260831154559 85 201 9.0 16.0 0.00 0.00 0.00 57 1013.1
20260831153056 84 193 3.0 12.0 0.00 0.00 0.00 59 1013.1
20260831151557 84 226 5.0 13.0 0.00 0.00 0.00 59 1013.0
20260831150053 84 178 5.0 11.0 0.00 0.00 0.00 59 1012.9
20260831144606 83 237 6.0 12.0 0.00 0.00 0.00 60 1013.0
20260831143101 82 158 3.0 13.0 0.00 0.00 0.00 62 1013.2
20260831141600 80 199 6.0 12.0 0.00 0.00 0.00 63 1013.4
20260831140050 79 158 5.0 12.0 0.00 0.00 0.00 64 1013.3
20260831134554 79 162 5.0 11.0 0.00 0.00 0.00 63 1013.2
20260831133047 79 160 6.0 12.0 0.00 0.00 0.00 63 1013.1
20260831131546 79 170 5.0 13.0 0.00 0.00 0.00 62 1012.7
20260831130048 79 199 8.0 13.0 0.00 0.00 0.00 63 1012.9
20260831124545 79 199 8.0 16.0 0.00 0.00 0.00 63 1012.8
20260831123041 78 160 4.0 12.0 0.00 0.00 0.00 62 1012.7
20260831121540 78 174 7.0 12.0 0.00 0.00 0.00 62 1012.6
20260831120041 79 195 6.0 11.0 0.00 0.00 0.00 62 1012.4
20260831114537 79 182 3.0 9.0 0.00 0.00 0.00 61 1012.4
20260831113034 79 144 8.0 16.0 0.00 0.00 0.00 61 1012.0
20260831111537 79 173 5.0 13.0 0.00 0.00 0.00 61 1012.2
20260831110030 79 190 6.0 13.0 0.00 0.00 0.00 60 1012.1
20260831104540 80 164 5.0 11.0 0.00 0.00 0.00 59 1012.0
20260831103025 80 139 6.0 11.0 0.00 0.00 0.00 58 1011.9
20260831101523 80 170 4.0 10.0 0.00 0.00 0.00 57 1011.7
20260831100021 81 187 3.0 7.0 0.00 0.00 0.00 57 1011.7
20260831094521 81 166 5.0 7.0 0.00 0.00 0.00 56 1011.5
20260831093031 81 207 3.0 12.0 0.00 0.00 0.00 56 1011.2
20260831091517 81 203 7.0 14.0 0.00 0.00 0.00 56 1011.2
20260831090014 82 170 6.0 13.0 0.00 0.00 0.00 55 1011.1
20260831084514 82 158 5.0 13.0 0.00 0.00 0.00 54 1011.1
20260831083010 83 147 4.0 9.0 0.00 0.00 0.00 54 1011.0
20260831081509 83 161 4.0 9.0 0.00 0.00 0.00 53 1011.0
20260831080006 83 154 5.0 9.0 0.00 0.00 0.00 53 1011.0
20260831074505 84 158 3.0 12.0 0.00 0.00 0.00 52 1010.9
20260831073003 84 132 5.0 11.0 0.00 0.00 0.00 52 1010.8
20260831071600 85 152 4.0 8.0 0.00 0.00 0.00 51 1010.7
20260831070103 85 146 3.0 7.0 0.00 0.00 0.00 50 1010.7
20260831064557 86 174 3.0 10.0 0.00 0.00 0.00 50 1010.7
20260831063054 86 172 4.0 7.0 0.00 0.00 0.00 49 1010.7
20260831061553 87 135 3.0 7.0 0.00 0.00 0.00 48 1010.6
20260831060050 87 147 4.0 7.0 0.00 0.00 0.00 48 1010.5
20260831054549 87 146 4.0 9.0 0.00 0.00 0.00 48 1010.4
20260831053048 87 159 5.0 9.0 0.00 0.00 0.00 48 1010.3
20260831051546 88 174 4.0 12.0 0.00 0.00 0.00 48 1010.2
20260831050044 88 136 5.0 10.0 0.00 0.00 0.00 47 1010.2
20260831044544 88 160 6.0 15.0 0.00 0.00 0.00 47 1010.0
20260831043045 88 180 7.0 16.0 0.00 0.00 0.00 47 1010.0
20260831041551 89 194 10.0 17.0 0.00 0.00 0.00 47 1010.0
20260831040042 89 172 7.0 13.0 0.00 0.00 0.00 46 1010.0
20260831034541 89 179 8.0 16.0 0.00 0.00 0.00 46 1009.9
20260831033042 90 199 6.0 12.0 0.00 0.00 0.00 46 1010.0
20260831031541 90 170 6.0 11.0 0.00 0.00 0.00 46 1009.9
20260831030040 90 211 5.0 10.0 0.00 0.00 0.00 46 1009.9
20260831024542 90 159 5.0 13.0 0.00 0.00 0.00 45 1009.8